Location: Newark
(15.4608°S, 41.1635°W)
Time: 13:58:58
(UTC+00:00)

Vanguard 3 - Pass Details

Date: 02 March 2021
Orbit: 508 x 3262 km, 33.3° (Epoch: 16 April)

Event Time Altitude Azimuth Distance (km) Brightness Sun altitude
Exits shadow 06:54:37 20° 201° (SSW) 1,791 8.8 -26.9°
Maximum altitude 06:55:32 20° 187° (S) 1,837 9.0 -26.7°
Drops below altitude 10° 07:00:31 10° 141° (SE) 3,022 10.8 -25.6°
Sets 07:05:02 0° 126° (SE) 4,530 12.1 -24.5°
